Weather in Krasninskoye

Russia / Kemerovo Oblast     54°47′37″N   85°27′15″E
temp.,
°C
wind,
m/s
gust,
m/s
humid.,
%
clouds,
%
prec.,
mm/h
press.,
hPa
HPBL,
m
23 october, sat
sat2301:00+3sw612635 0.0 1025649
04:00+2ssw7146189 0.0 1025892
07:00+2ssw81557100 0.0 1025878
10:00+3ssw9175536 0.0 10241360
13:00+5ssw101853100 0.0 10221406
16:00+5ssw101853100 0.0 10201223
19:00+3sw112274100 0.4 10191165
22:00+4sw112189100 1.6 10181177
24 october, sun
sun2401:00+4sw111993100 1.9 1018996
04:00+5sw101785100 0.1 1018927
07:00+5sw101886100 0.3 1018905
10:00+6sw101773100 0.2 10181026
13:00+6sw91675100 0.3 1018975
16:00+8sw10167293 0.1 1019872
19:00+7sw8157765 0.1 1021671
22:00+7sw71480100 0.1 1022534
25 october, mon
mon2501:00+6sw5128697 0.1 1022329
04:00+6ssw51187100 0.0 1022309
07:00+6ssw51285100 0.0 1021397
10:00+7ssw71570100 0.0 1019568
13:00+10sw81762100 0.0 1017848
16:00+11sw91657100 0.0 1016872
19:00+9sw8156099 0.0 1017737
22:00+9wsw61159100 0.0 1019544
26 october, tue
tue2601:00+7wsw357166 0.0 102086
04:00+5wsw117782 0.0 102010
07:00+4s347998 0.0 102058
10:00+5sse4972100 0.0 1018269
13:00+9s61054100 0.0 1015468
16:00+9s41155100 0.0 1012386
19:00+8s61561100 0.0 1010419
22:00+9sw81650100 0.0 1009579
27 october, wed
wed2701:00+8sw71447100 0.0 1009435
04:00+7wsw61157100 0.0 1012431
07:00+2nw5996100 0.1 1018650
10:00+1nw4661100 0.6 1022822
13:00+2nw4450100 0.6 1024875
16:00+2nw34457 0.0 1026969
19:00−1nw225739 0.0 102810
22:00−1nw1159100 0.0 102911